Printer-friendly version

IAU Minor Planet Center

Minor Planet Center

MPEC 2004-P34 : 2000 AE205

The following Minor Planet Electronic Circular may be linked-to from your own Web pages, but must not otherwise be redistributed electronically.


Read MPEC 2004-P33 Read MPEC 2004-P35


M.P.E.C. 2004-P34                                Issued 2004 Aug. 10, 11:54 UT

     The Minor Planet Electronic Circulars contain information on unusual
         minor planets and routine data on comets.  They are published
   on behalf of Commission 20 of the International Astronomical Union by the
          Minor Planet Center, Smithsonian Astrophysical Observatory,
                          Cambridge, MA 02138, U.S.A.

                  Supported in part by the Brinson Foundation
             Prepared using the Tamkin Foundation Computer Network

                              MPC@CFA.HARVARD.EDU
          URL http://cfa-www.harvard.edu/iau/mpc.html  ISSN 1523-6714

                                  2000 AE205

                           Revision to MPEC 2000-B03

Additional Observations:
     K00AK5E 2C2004 07 20.39050721 29 56.829-01 52 55.59         21.0 R EP034568
     K00AK5E 2C2004 07 20.39856921 29 56.209-01 52 45.28         20.7 R EP034568
     K00AK5E 2C2004 07 22.35369921 27 42.682-01 11 04.12         20.8 R EP034568
     K00AK5E 2C2004 07 22.35586321 27 42.503-01 11 01.37         20.8 R EP034568

Observer details:
568 Mauna Kea.  Observer F. Bernardi.  Measurers F. Bernardi, D. J. Tholen.
    2.2-m University of Hawaii reflector + CCD.

First and last observations above in comparison with prediction:
Residuals in seconds of arc (or two decimals in degrees), reference and Delta-T
040720 568 0.09- 0.03-    040722 568 0.10- 0.03-    MPC 39582   +0.025 day

Orbital elements:
2000 AE205
Epoch 2004 July 14.0 TT = JDT 2453200.5                 MPC
M 250.11323              (2000.0)            P               Q
n   0.78579691     Peri.  150.10671     +0.46939807     -0.87955856
a   1.1630432      Node   271.80012     +0.79392594     +0.45894352
e   0.1367045      Incl.    4.46039     +0.38645447     +0.12548937
P   1.25           H   23.0           G   0.15           U   3
Residuals in seconds of arc
000108 704  0.6+  0.9+    000110 704  0.3-  0.1-    000114 046  0.0   0.5+
000108 704  0.4+  0.3+    000111 651  0.3-  1.1-    000114 046  0.4+  0.2-
000108 704  0.4+  0.6+    000111 651  1.0-  0.7-    000114 046  0.5+  0.1+
000108 704  0.4+  0.8+    000111 704  0.4-  0.6-    000114 046  0.1+  0.1+
000108 704  0.9+  0.9+    000111 704  0.1-  0.4-    000114 557  0.6-  0.8-
000109 046  0.9+  0.1-    000111 711  0.0   0.4+    000114 557  0.1+  0.7-
000109 046  0.3-  0.2+    000111 711  0.8-  0.9-    000114 557  0.1-  0.4-
000109 046  0.7+  0.5+    000111 711  0.8-  0.5-    000115 693  1.4-  1.3+
000109 046  1.3+  0.7-    000111 704  0.7-  0.6-    000115 693  1.5-  1.2+
000109 704  0.0   0.0     000111 704  0.6-  0.2-    000115 422  1.1+  0.2+
000109 704  0.1+  0.5+    000111 422  0.3+  0.3-    000115 422  1.1+  1.2+
000109 704  0.4+  0.3-    000111 422  0.2+  0.0     000115 422  0.2-  0.2+
000109 704  0.3-  1.3-    000111 422  0.4-  0.4+    000124 658  1.2-  0.3-
000109 704  0.3+  0.1+    000111 422  0.3-  0.2+    000124 658  0.9+  0.2-
000109 704  0.3-  0.1+    000111 557  1.4-  0.3-    000207 413  0.3+  0.2+
000109 704  0.1-  0.2+    000111 557  0.9-  0.4-    000207 413  0.3+  0.0
000109 704  0.1+  0.1+    000111 557  1.2-  1.1-    000208 413  0.1+  0.1+
000109 711  1.4+  0.9+    000111 587  0.4-  0.3-    000208 413  0.4+  0.1+
000109 704  0.2-  0.1-    000111 587  0.4+  0.1+    000301 693  0.6+  0.0
000109 711  0.4+  0.3+    000111 046  0.3+  0.1+    000301 693  0.7+  0.1-
000109 711  0.1+  0.0     000111 046  0.1+  0.0     000301 693  0.6+  0.3+
000110 704  0.1-  0.2+    000111 046  0.2+  0.3+    040720 568  0.1+  0.1+
000110 704  0.4-  0.5-    000112 046  0.3+  0.0     040720 568  0.0   0.1+
000110 711  0.4-  1.4+    000112 046  0.2+  0.2+    040722 568  0.0   0.0
000110 711  0.3+  0.4-    000112 046  0.6+  0.1-    040722 568  0.0   0.1-
000110 704  0.4-  1.1-    000112 046  0.7+  0.2+
000110 711  1.0-  0.2-    000112 046  0.6+  0.1+

Ephemeris:
2000 AE205               a,e,i = 1.16, 0.14, 4                   q = 1.0040
Date    TT    R. A. (2000) Decl.     Delta      r     Elong.  Phase     V
2004 08 03    21 08.78   +02 54.6    0.191    1.196   159.3    17.5    20.7
2004 08 13    20 46.53   +06 01.1    0.174    1.174   156.5    20.1    20.6
2004 08 23    20 23.03   +08 17.7    0.164    1.153   147.1    28.5    20.6
2004 09 02    20 03.54   +09 36.5    0.161    1.131   136.1    38.3    20.8
2004 09 12    19 51.25   +10 06.8    0.162    1.109   125.8    47.4    21.1
2004 09 22    19 47.43   +10 07.0    0.164    1.088   117.0    55.3    21.3
2004 10 02    19 51.57   +09 56.8    0.165    1.068   109.9    61.8    21.4
2004 10 12    20 02.55   +09 45.1    0.163    1.050   104.1    67.2    21.5
2004 10 22    20 19.86   +09 38.1    0.160    1.034    99.7    71.5    21.6
2004 11 01    20 43.05   +09 39.1    0.154    1.021    96.5    74.9    21.6
2004 11 11    21 12.29   +09 44.6    0.145    1.012    94.5    77.3    21.5
2004 11 21    21 48.63   +09 52.7    0.136    1.006    93.7    78.5    21.4
2004 12 01    22 33.06   +09 58.4    0.127    1.004    94.5    78.2    21.3
2004 12 11    23 26.40   +09 51.8    0.120    1.006    96.9    76.3    21.1
2004 12 21    00 28.00   +09 29.3    0.117    1.012   100.7    72.7    20.9
2004 12 31    01 33.72   +08 50.9    0.121    1.022   105.4    68.1    20.8
2005 01 10    02 37.58   +08 07.4    0.131    1.035   109.7    63.5    20.9
2005 01 20    03 35.29   +07 36.0    0.149    1.051   112.9    59.6    21.1
2005 01 30    04 25.38   +07 22.1    0.172    1.069   114.8    56.8    21.4
2005 02 09    05 08.69   +07 24.7    0.202    1.089   115.5    54.9    21.7

Timothy B. Spahr             (C) Copyright 2004 MPC           M.P.E.C. 2004-P34

Read MPEC 2004-P33 Read MPEC 2004-P35


Our Web policy. Index to the CBAT/MPC/ICQ pages.


Valid HTML 4.01!